Content
SEND FEEDBACK

Daily
Averages
Monthly
Summary
United Kingdom

LONDON, ENGLAND


Home > Europe > United Kingdom > England
Elevation: 61 meters     Latitude: 51 09N     Longitude: 000 11W

WEATHER
 
SELECT A DAY
Number of Records: 296,286;   Date Range: 7/1/96 - 9/30/14
 
SHARE

PRINT THIS DATA

[ ← Previous Day ]
WEATHER ALMANAC - 4 APRIL, 2013
[ Next Day → ]
[ °F ]   °C
Weather ElementAverageHighLow
Temperature1.6 °C2 °C (12:50 am)1 °C (2:50 am)
Dewpoint-1.7 °C0 °C (8:20 am)-4 °C (9:20 pm)
Humidity79.5 %93 % (2:50 pm)70 % (12:50 am)
Barometer1013.2 hPa1014.2 hPa (12:50 am)1012.2 hPa (2:50 pm)
Wind Speed22.9 km/h31.5 km/h (10:20 am)
Wind Gust55.5 km/h (11:50 am)
Weather ElementAverage
Visibility8.4 km
Wind DirectionNNE (31.9 °)

Weather ElementTotal
Precipitation---
Heating Degree Days16.8 (Base 18.3)
Averaged from 47 records on 4 April, 2013
WEATHER CONDITIONS BREAKOUT
WIND DIRECTION BREAKOUT
WEATHER BY HOUR - 4 APRIL, 2013
[ °F ]   °C
Local TimeTemperatureDewpointHumidityBarometerVisibilityWind DirectionWind SpeedGust SpeedPrecipitationEventsConditions
12:50 AM2 °C-3 °C70 %1014.2 hPa10 kmNNE (30°)20.4 km/hSnowLight Snow Grains
1:20 AM2 °C-3 °C70 %1014.2 hPaNE (40°)22.2 km/hClear
1:50 AM2 °C-2 °C75 %1014.2 hPa10 kmNNE (30°)22.2 km/hPartly Cloudy
2:20 AM2 °C-2 °C75 %1014.2 hPa10 kmNNE (30°)18.5 km/hMostly Cloudy
2:50 AM1 °C-2 °C81 %1014.2 hPa10 kmNE (40°)13 km/hMostly Cloudy
3:20 AM1 °C-2 °C81 %1013.2 hPa10 kmNNE (20°)16.7 km/hScattered Clouds
3:50 AM1 °C-2 °C81 %1013.2 hPa10 kmNNE (20°)16.7 km/hPartly Cloudy
4:20 AM1 °C-2 °C81 %1013.2 hPa10 kmNNE (30°)16.7 km/hScattered Clouds
4:50 AM1 °C-2 °C81 %1013.2 hPa9 kmNNE (30°)18.5 km/hPartly Cloudy
5:20 AM1 °C-1 °C87 %1013.2 hPa9 kmNNE (30°)20.4 km/hScattered Clouds
5:50 AM1 °C-1 °C87 %1013.2 hPa8 kmNNE (20°)20.4 km/hMostly Cloudy
6:20 AM1 °C-2 °C81 %1013.2 hPa6.9 kmNNE (20°)20.4 km/hScattered Clouds
6:50 AM1 °C-1 °C87 %1013.2 hPa6.9 kmNNE (20°)22.2 km/hPartly Cloudy
7:20 AM2 °C-1 °C81 %1013.2 hPa6.9 kmNNE (30°)18.5 km/hOvercast
7:50 AM2 °C-1 °C81 %1013.2 hPa5 kmNNE (20°)20.4 km/hSnowLight Snow
8:20 AM2 °C0 °C87 %1013.2 hPa6 kmNE (40°)20.4 km/hSnowLight Snow Showers
8:50 AM2 °C-1 °C81 %1013.2 hPa8 kmNE (40°)25.9 km/hRainLight Rain
9:20 AM2 °C-1 °C81 %1013.2 hPa10 kmNE (40°)24.1 km/hOvercast
9:50 AM2 °C-2 °C75 %1013.2 hPa10 kmNE (40°)25.9 km/hMostly Cloudy
10:20 AM2 °C-3 °C70 %1013.2 hPa10 kmNE (40°)31.5 km/hMostly Cloudy
10:50 AM2 °C-3 °C70 %1013.2 hPa10 kmNE (40°)31.5 km/hMostly Cloudy
11:20 AM2 °C-2 °C75 %1013.2 hPa9 kmNE (40°)27.8 km/hOvercast
11:50 AM2 °C-2 °C75 %1013.2 hPa9 kmNE (50°)29.6 km/h55.5 km/hSnowLight Snow Grains
12:20 PM2 °C-2 °C75 %1013.2 hPa6.9 kmNE (40°)24.1 km/hSnowLight Snow
12:50 PM2 °C-2 °C75 %1013.2 hPa6.9 kmNNE (30°)22.2 km/h42.6 km/hSnowLight Snow
1:20 PM2 °C-1 °C81 %1013.2 hPa5 kmNNE (20°)22.2 km/hSnowLight Snow
1:50 PM2 °C-1 °C81 %1013.2 hPaNNE (30°)22.2 km/hSnowLight Snow
2:20 PM2 °C0 °C87 %1013.2 hPa4.5 kmNNE (30°)18.5 km/hSnowLight Snow Showers
2:50 PM1 °C0 °C93 %1012.2 hPa3.1 kmNNE (30°)27.8 km/hSnowLight Snow Showers
3:20 PM2 °C0 °C87 %1012.2 hPa6.9 kmNE (40°)29.6 km/hSnowLight Snow
3:50 PM2 °C-1 °C81 %1012.2 hPa8 kmNE (40°)31.5 km/h50.1 km/hSnowLight Snow Showers
4:20 PM1 °C-1 °C87 %1012.2 hPa6.9 kmNE (50°)25.9 km/hSnowLight Snow
4:50 PM2 °C-1 °C81 %1012.2 hPa6.9 kmNNE (30°)25.9 km/hSnowLight Snow Showers
5:20 PM2 °C-1 °C81 %1012.2 hPa8 kmNE (40°)29.6 km/hSnowLight Snow Showers
5:50 PM2 °C0 °C87 %1012.2 hPa9 kmNE (40°)25.9 km/hSnowLight Snow Showers
6:20 PM1 °C0 °C93 %1012.2 hPa6 kmNNE (30°)22.2 km/hSnowLight Snow Showers
6:50 PM1 °C-1 °C87 %1012.2 hPa9 kmNNE (30°)25.9 km/hSnowLight Snow Showers
7:20 PM2 °C-1 °C81 %1012.2 hPa10 kmNNE (30°)24.1 km/hMostly Cloudy
7:50 PM2 °C-2 °C75 %1013.2 hPa10 kmNNE (30°)24.1 km/hMostly Cloudy
8:20 PM1 °C-2 °C81 %1013.2 hPa10 kmNNE (30°)22.2 km/hScattered Clouds
8:50 PM1 °C-3 °C75 %1013.2 hPa10 kmNNE (30°)20.4 km/hPartly Cloudy
9:20 PM1 °C-4 °C70 %1013.2 hPa10 kmNNE (30°)18.5 km/hPartly Cloudy
9:50 PM1 °C-4 °C70 %1013.2 hPaNNE (30°)22.2 km/hClear
10:20 PM1 °C-4 °C70 %1013.2 hPa10 kmNNE (30°)22.2 km/hPartly Cloudy
10:50 PM1 °C-3 °C75 %1013.2 hPa10 kmNNE (30°)18.5 km/hMostly Cloudy
11:20 PM1 °C-3 °C75 %1013.2 hPa10 kmNNE (20°)24.1 km/hMostly Cloudy
11:50 PM1 °C-3 °C75 %1013.2 hPa10 kmNNE (20°)22.2 km/hMostly Cloudy
Hourly data recorded from EGKK, located 0 kilometers away from London, England







STORIES FROM OUR PARTNERS